Regional Weather Roundup
Issued by NWS Newport/Morehead, NC

Current Version | Previous Version | Graphics & Text | Print | Product List | Glossary Off
Versions: 1 2 3 4 5 6 7 8 9 10 11 12 13 14 15 16 17 18 19 20 21 22 23 24 25 26 27 28 29 30 31 32 33 34 35 36 37 38 39 40 41 42 43 44 45 46 47 48 49 50

739
ASUS42 KMHX 271125
RWRMHX
WEATHER ROUNDUP FOR EASTERN NORTH CAROLINA
NATIONAL WEATHER SERVICE NEWPORT/MOREHEAD CITY NC
700 AM EDT FRI MAY 27 2016

NOTE: "FAIR" INDICATES FEW OR NO CLOUDS BELOW 12,000 FEET
WITH NO SIGNIFICANT WEATHER AND/OR OBSTRUCTIONS TO VISIBILITY

NCZ015>017-031-032-045>047-102-103-271200-
NORTH COAST

CITY           SKY/WX    TMP DP  RH WIND       PRES   REMARKS
EDENTON        SUNNY    N/A N/A N/A S5        30.17S
ELIZABETH CITY MOSUNNY   69  63  81 CALM      30.17R
KITTY HAWK     MOSUNNY   70  65  84 CALM      30.17S
MANTEO         NOT AVBL

$$

NCZ045>047-081-094-103-104-271200-
CENTRAL COAST

CITY           SKY/WX    TMP DP  RH WIND       PRES   REMARKS
FRISCO         SUNNY     69  65  86 CALM      30.19R

$$

NCZ095-097-098-100-101-271200-
SOUTHERN COAST

CITY           SKY/WX    TMP DP  RH WIND       PRES   REMARKS
BEAUFORT       SUNNY     66  65  96 CALM      30.17R
CEDAR ISLAND   NOT AVBL
JACKSONVILLE   SUNNY     64  62  93 CALM      30.17R
PINEY ISLAND   SUNNY    N/A N/A N/A CALM      30.17R
WILMINGTON     SUNNY     65  63  93 CALM      30.16R


$$

NCZ011>013-027>030-043-044-078>080-089-090>093-098-271200-
COASTAL PLAIN

CITY           SKY/WX    TMP DP  RH WIND       PRES   REMARKS
AHOSKIE        SUNNY     67  63  87 S5        30.16R
CLINTON        MOSUNNY   67  67  97 CALM      30.16S
ELIZABETHTOWN  CLEAR     65  65 100 CALM      30.16R
GOLDSBORO      SUNNY     65  65  99 E3        30.14S
GREENVILLE     MOSUNNY   70  64  83 S6        30.17S
HAVELOCK       SUNNY     62  60  93 CALM      30.18R
KENANSVILLE    MOSUNNY   63  63  97 CALM      30.17S
KINSTON        MOSUNNY   64  64 100 CALM      30.17S
NEW BERN       SUNNY     63  60  90 CALM      30.18R
RICHLANDS      SUNNY     62  61  96 CALM      30.17S
ROCKY MOUNT    SUNNY     68  65  90 S3        30.15S
WASHINGTON     SUNNY     67  65  91 CALM      30.17S
WHITEVILLE     CLEAR     63  61  94 CALM      30.15R

$$

AMZ130-135-150-152-154-156-158-170-250-252-270-ANZ085-086-088-633-658-670-271200-
MARINE OBSERVATIONS

STATION/POSITION TIME  TEMP    WIND        PRES    WAVE   SWELL
                       AIR SEA DIR/SP/G            HT/PER HT/PER
                 (UTC) (F)     (DEG/KT/KT) (MB)    (FT/S) (FT/S)
CHESAPEAKE LIGHT 1000   70     220/ 18/ 19 1021.2
64 E VA BEACH    1050   64 59  200/  6/  6 1021.9    2/ 8   2/ 8
DUCK             1100   71 60  210/  7/  8 1021.1
2 E DUCK         1011      62                N/A     2/ 7
OREGON INLET     1100   73 76   CALM  /  1 1022.2
13E OREGON INLT  1100      64                N/A     2/ 8   2/ 8
HATTERAS CG      1100   73 72  280/  2/  3 1021.8
DIAMOND BUOY     1050   77 80  170/  6/  8 1022.0    2/ 8   2/ 8
CAPE LOOKOUT     1100   73      90/  1/  2 1021.3
BEAUFORT LAB     1100   72 72   CALM  /  2 1021.0
30 SE NEW RVR IN 1055      74                N/A     2/ 8
27 SE WRIGHTSVLE 1108   76 74   90/  4/  6 1020.8
5 SE WRIGHTSVLE  1108   71 73   10/  8/ 10 1021.8
225 S CAPE HAT   1050   76 77   60/ 19/ 25 1018.8    3/ 5   2/ 7
41 SE CHARLESTON 1050   77 76   40/  4/  6 1019.9    2/ 5   2/ 5

$$




USA.gov is the U.S. government's official web portal to all federal, state and local government web resources and services.